"TOA5","AWS1","CR1000","7964","CR1000.Std.14","CPU:AWS1_114.CR1","64363","TBL110"
"TIMESTAMP","RECORD","Wind_spd_WVc(1)","Wind_spd_WVc(2)","Air_Temp_Avg","Humidity_Avg","SW_upper_Wm2_Avg","Rain_Tot","Press_Avg","Issui_Tot","Depth_cm","SR50A_Raw","Quality","Ground_Temp_Avg(1)","Ground_Temp_Avg(2)","SW_lower_Wm2_Avg","Albedo_Avg","SWC_per(1)","SWC_per(2)","Period(1)","Period(2)"
"TS","RN","","","","","","","","","","","","","","","","","","",""
"","","WVc","WVc","Avg","Avg","Avg","Tot","Avg","Tot","Smp","Smp","Smp","Avg","Avg","Avg","Avg","Smp","Smp","Smp","Smp"
"2016-11-17 00:00:00",262285,0.24,63.41,4.603,31.62,0,0,868.0076,0,-2.77,3.184,222,7.306,8.58,0.3905898,0,51.88,59.79,33.76,35.63
"2016-11-17 00:10:00",262286,0.049,79.67,3.967,33.87,0,0,868.0392,0,-2.317,3.178,242,7.271,8.55,0.04550561,0,51.82,59.79,33.75,35.63
"2016-11-17 00:20:00",262287,0.162,106.9,4.209,34.56,0,0,868.033,0,-2.52,3.183,216,7.259,8.53,0.2161516,0,51.88,59.79,33.76,35.63
"2016-11-17 00:30:00",262288,0.223,322.4,4.452,33.55,0,0,867.9486,0,-2.012,3.173,205,7.259,8.52,0.5119381,0,51.88,59.73,33.76,35.62
"2016-11-17 00:40:00",262289,0.274,315.6,4.698,35.6,0,0,867.8664,0,-2.643,3.18,213,7.259,8.52,0.2957864,0,51.88,59.73,33.76,35.62
"2016-11-17 00:50:00",262290,0.34,330.8,4.778,41.71,0,0,867.8598,0,-2.062,3.173,230,7.259,8.52,0.2313202,0,51.82,59.67,33.75,35.6
"2016-11-17 01:00:00",262291,0.2,16.44,4.366,43.12,0,0,868.0853,0,-1.892,3.178,200,7.253,8.51,0.03033707,0,51.88,59.67,33.76,35.6
"2016-11-17 01:10:00",262292,0.325,305.6,2.867,49.81,0,0,868.094,0,-1.518,3.183,196,7.275,8.49,0,0,51.88,59.73,33.76,35.62
"2016-11-17 01:20:00",262293,0.039,298.7,1.89,52.42,0,0,868.2097,0,-3.022,3.2,216,7.199,8.47,0,0,51.88,59.73,33.76,35.62
"2016-11-17 01:30:00",262294,0,0,1.415,57.34,0,0,868.3369,0,-1.767,3.189,216,7.177,8.47,0,0,51.82,59.73,33.75,35.62
"2016-11-17 01:40:00",262295,0.716,41.67,2.437,46.88,0,0,868.3487,0,-2.245,3.184,266,7.214,8.47,0.6257021,0,51.88,59.67,33.76,35.6
"2016-11-17 01:50:00",262296,0.194,149.4,3.167,42.22,0,0,868.4855,0,-2.521,3.187,204,7.174,8.44,0.7470504,0,51.82,59.73,33.75,35.62
"2016-11-17 02:00:00",262297,0.405,171.4,3.141,41.97,0,0,868.4312,0,-2.823,3.191,222,7.158,8.4,0.4740168,0,51.82,59.67,33.75,35.6
"2016-11-17 02:10:00",262298,0.419,185.8,3.014,41.18,0,0,868.5936,0,-2.219,3.183,235,7.087,8.41,0.2616573,0,51.82,59.73,33.75,35.62
"2016-11-17 02:20:00",262299,0.543,175.3,3.11,43.71,0,0,868.6019,0,-2.269,3.184,208,7.085,8.44,0.197191,0,51.82,59.67,33.75,35.6
"2016-11-17 02:30:00",262300,0.468,164.3,3.061,51.57,0,0,868.6019,0,-3.828,3.2,207,7.085,8.47,0.08342694,0,51.82,59.67,33.75,35.6
"2016-11-17 02:40:00",262301,0.236,162,2.877,57.97,0,0,868.6019,0,-1.366,3.177,308,7.065,8.46,0.04550561,0,51.82,59.67,33.75,35.6
"2016-11-17 02:50:00",262302,0.25,121.4,2.987,61.6,0,0,868.6442,0,-2.547,3.19,276,7.039,8.42,0.1516854,0,51.82,59.67,33.75,35.6
"2016-11-17 03:00:00",262303,0.139,140.4,2.787,64.64,0,0,868.6041,0,-1.439,3.174,282,7.059,8.39,0.4133426,0,51.77,59.67,33.73,35.6
"2016-11-17 03:10:00",262304,0.11,103.1,3.606,62.5,0,0,868.6019,0,-2.571,3.186,239,7.075,8.39,0.6105336,0,51.77,59.67,33.73,35.6
"2016-11-17 03:20:00",262305,0.033,80.7,3.49,63.47,0,0,868.6019,0,-1.061,3.17,206,7.017,8.39,0.4360954,0,51.82,59.67,33.75,35.6
"2016-11-17 03:30:00",262306,0.074,93,2.837,66.63,0,0,868.5092,0,-0.562,3.171,218,6.999,8.39,0.1327247,0,51.77,59.67,33.73,35.6
"2016-11-17 03:40:00",262307,0.257,137.2,3.123,66.19,0,0,868.524,0,-3.476,3.201,199,7,8.4,0.595365,0,51.77,59.67,33.73,35.6
"2016-11-17 03:50:00",262308,0.167,151.9,2.488,69.58,0,0,868.5408,0,-2.12,3.185,205,6.965,8.37,0.1023876,0,51.77,59.67,33.73,35.6
"2016-11-17 04:00:00",262309,0.156,112.2,2.871,66.91,0,0,868.5703,0,-1.265,3.176,217,6.968,8.37,0.2502808,0,51.77,59.67,33.73,35.6
"2016-11-17 04:10:00",262310,0.272,159.6,2.704,66.82,0,0,868.3912,0,-0.964,3.175,211,6.995,8.38,0.2351123,0,51.77,59.61,33.73,35.59
"2016-11-17 04:20:00",262311,0.351,145.2,2.374,68.92,0,0,868.4734,0,-1.266,3.177,212,6.952,8.38,0.2275281,0,51.82,59.67,33.75,35.6
"2016-11-17 04:30:00",262312,0.346,156,2.703,68.04,0,0,868.583,0,-1.015,3.175,214,6.912,8.38,0.367837,0,51.77,59.61,33.73,35.59
"2016-11-17 04:40:00",262313,0.262,171.7,2.64,69.13,0,0,868.545,0,-0.762,3.171,217,6.912,8.38,0.06446628,0,51.82,59.61,33.75,35.59
"2016-11-17 04:50:00",262314,0.121,97.4,2.771,68.82,0,0,868.564,0,-1.165,3.176,207,6.923,8.34,0.1630618,0,51.77,59.61,33.73,35.59
"2016-11-17 05:00:00",262315,0.122,146.9,2.639,70.14,0,0,868.6019,0,-1.667,3.181,204,6.934,8.31,0.197191,0,51.82,59.61,33.75,35.59
"2016-11-17 05:10:00",262316,0.067,63.48,2.524,70.87,0,0,868.6019,0,-1.617,3.181,200,6.926,8.3,0.08721908,0,51.77,59.61,33.73,35.59
"2016-11-17 05:20:00",262317,0.333,336.8,2.858,70.28,0,0,868.6019,0,-2.471,3.184,205,6.913,8.3,0.4095505,0,51.82,59.61,33.75,35.59
"2016-11-17 05:30:00",262318,0.346,299.1,3.697,67.22,0,0,868.6019,0,-2.772,3.191,220,6.898,8.3,0.932865,0,51.77,59.61,33.73,35.59
"2016-11-17 05:40:00",262319,0.291,273.7,3.334,69.44,0.003932973,0,868.8127,0,-2.117,3.179,210,6.828,8.3,0.3374999,0.048,51.77,59.61,33.73,35.59
"2016-11-17 05:50:00",262320,0.511,318,3.803,67.88,0.06686053,0,868.8549,0,-0.656,3.164,257,6.827,8.3,0.4929774,0.627,51.77,59.61,33.73,35.59
"2016-11-17 06:00:00",262321,1.107,285.7,3.859,68.18,0,0,868.8697,0,-4.081,3.199,207,6.826,8.3,0.1175562,0,51.77,59.56,33.73,35.58
"2016-11-17 06:10:00",262322,0.463,177,3.397,70.87,0,0,869.0614,0,-4.131,3.204,189,6.826,8.3,0,0,51.82,59.56,33.75,35.58
"2016-11-17 06:20:00",262323,0.343,206.2,3.02,72.71,0,0,869.1077,0,-3.628,3.199,185,6.826,8.3,0,0,51.77,59.56,33.73,35.58
"2016-11-17 06:30:00",262324,0.655,251.8,3.036,73.76,0.3264367,0,869.4344,0,-2.32,3.185,203,6.833,8.3,0.04929774,0.042,51.77,59.56,33.73,35.58
"2016-11-17 06:40:00",262325,0.422,213.2,2.94,75.65,2.930065,0,869.6136,0,-2.824,3.192,194,6.842,8.3,0.1592696,0.062,51.71,59.56,33.72,35.58
"2016-11-17 06:50:00",262326,0.622,169.9,2.813,77.14,6.701785,0,869.4787,0,-3.627,3.2,187,6.812,8.3,0.8835672,0.131,51.77,59.56,33.73,35.58
"2016-11-17 07:00:00",262327,0.457,166.2,2.923,78.5,11.82645,0,869.4197,0,-3.628,3.2,188,6.742,8.3,1.956741,0.166,51.77,59.56,33.73,35.58
"2016-11-17 07:10:00",262328,0.452,152,2.681,79.7,17.26968,0,869.1921,0,-4.08,3.205,178,6.739,8.3,2.449718,0.142,51.77,59.56,33.73,35.58
"2016-11-17 07:20:00",262329,0.504,128.8,3.209,76.24,26.1582,0,869.19,0,-3.376,3.193,196,6.739,8.3,4.368538,0.167,51.77,59.5,33.73,35.56
"2016-11-17 07:30:00",262330,0.886,204.5,3.591,73.35,31.59357,0,869.2469,0,-3.125,3.19,193,6.739,8.3,5.236937,0.164,51.77,59.56,33.73,35.58
"2016-11-17 07:40:00",262331,0.871,56.23,3.868,70.88,35.6642,0,869.3375,0,-3.023,3.186,190,6.739,8.29,8.338902,0.222,51.77,59.56,33.73,35.58
"2016-11-17 07:50:00",262332,0.596,185.4,4.63,66.08,46.95183,0,869.2975,0,-2.01,3.172,204,6.739,8.29,13.21938,0.282,51.77,59.5,33.73,35.56
"2016-11-17 08:00:00",262333,0.567,335.5,5.075,63.56,67.32069,0,869.3629,0,-2.309,3.172,194,6.739,8.3,14.77036,0.233,51.77,59.5,33.73,35.56
"2016-11-17 08:10:00",262334,0.425,136.4,5.464,64.78,71.41492,0,869.4511,0,-2.31,3.172,194,6.739,8.3,13.74269,0.191,51.71,59.5,33.72,35.56
"2016-11-17 08:20:00",262335,0.509,24.9,5.502,63.68,98.24565,0,869.5478,0,-2.737,3.175,186,6.739,8.3,14.97514,0.152,51.77,59.5,33.73,35.56
"2016-11-17 08:30:00",262336,0.894,61.85,5.693,63.29,128.6135,0,869.533,0,-2.042,3.166,197,6.733,8.29,24.053,0.184,51.71,59.5,33.72,35.56
"2016-11-17 08:40:00",262337,0.581,317.2,5.702,64.75,89.36659,0,869.434,0,-3.29,3.181,180,6.707,8.27,12.53162,0.138,51.71,59.5,33.72,35.56
"2016-11-17 08:50:00",262338,0.516,223.9,5.294,67.21,76.46537,0,869.3286,0,-2.165,3.171,187,6.674,8.23,10.43332,0.135,51.71,59.5,33.72,35.56
"2016-11-17 09:00:00",262339,0.448,159.7,5.488,67.98,97.10667,0,869.2707,0,-1.754,3.166,212,6.657,8.22,15.90692,0.164,51.71,59.5,33.72,35.56
"2016-11-17 09:10:00",262340,0.69,159.5,5.509,68.48,86.44961,0,869.2684,0,-1.393,3.16,196,6.651,8.21,16.4145,0.19,51.71,59.5,33.72,35.56
"2016-11-17 09:20:00",262341,0.797,153.4,6.168,65.48,98.46009,0,869.2683,0,-2.697,3.168,185,6.647,8.21,25.78915,0.263,51.71,59.5,33.72,35.56
"2016-11-17 09:30:00",262342,0.668,160.2,6.724,64.61,91.68958,0,869.2683,0,-2.45,3.168,200,6.605,8.15,24.98543,0.277,51.77,59.5,33.73,35.56
"2016-11-17 09:40:00",262343,0.615,292,6.081,67.54,203.8432,0,869.2914,0,-2.558,3.173,228,6.567,8.12,39.27688,0.189,51.71,59.44,33.72,35.55
"2016-11-17 09:50:00",262344,0.513,326.7,5.581,69.87,164.1141,0,869.3842,0,-2.151,3.168,208,6.575,8.15,24.42816,0.149,51.71,59.44,33.72,35.55
"2016-11-17 10:00:00",262345,0.234,319.7,5.604,70.88,189.5596,0,869.3346,0,-3.038,3.178,205,6.627,8.18,28.60946,0.151,51.77,59.5,33.73,35.56
"2016-11-17 10:10:00",262346,0.227,289.8,5.734,71.37,247.7791,0,869.2774,0,-3.667,3.182,225,6.591,8.18,42.48014,0.17,51.71,59.44,33.72,35.55
"2016-11-17 10:20:00",262347,0.719,291.8,6.02,69.45,238.9762,0,869.2194,0,-1.344,3.16,278,6.563,8.15,41.63857,0.171,51.77,59.44,33.73,35.55
"2016-11-17 10:30:00",262348,0.651,307.1,5.909,69.69,260.6036,0,869.1841,0,-1.845,3.164,201,6.563,8.17,37.01746,0.152,51.71,59.5,33.72,35.56
"2016-11-17 10:40:00",262349,0.634,245.7,6.379,67.83,248.6661,0,869.0831,0,-1.812,3.162,212,6.556,8.16,41.09169,0.189,51.71,59.44,33.72,35.55
"2016-11-17 10:50:00",262350,0.477,305.5,6.46,67.18,260.5789,0,869.1574,0,-2.636,3.169,197,6.601,8.15,52.95454,0.202,51.71,59.5,33.72,35.56
"2016-11-17 11:00:00",262351,0.461,1.072,6.531,68.59,256.379,0,869.176,0,-2.575,3.168,189,6.631,8.13,40.41316,0.158,51.71,59.44,33.72,35.55
"2016-11-17 11:10:00",262352,0.54,331.7,6.322,70.46,211.6766,0,869.0917,0,-2.446,3.17,198,6.602,8.12,32.87211,0.154,51.71,59.44,33.72,35.55
"2016-11-17 11:20:00",262353,0.44,302.4,5.359,75.5,150.4035,0,869.0032,0,-2.521,3.176,187,6.59,8.08,21.31454,0.142,51.71,59.44,33.72,35.55
"2016-11-17 11:30:00",262354,0.279,279,5.21,76.78,223.6577,0,868.9401,0,-2.511,3.174,192,6.633,8.03,39.81441,0.167,51.71,59.5,33.72,35.56
"2016-11-17 11:40:00",262355,0.38,299.2,5.661,74.8,304.5862,0,868.8347,0,-2.505,3.172,201,6.688,8.01,56.01792,0.179,51.71,59.44,33.72,35.55
"2016-11-17 11:50:00",262356,0.307,333,5.914,73.05,290.5399,0,868.6703,0,-3.032,3.175,218,6.646,8.02,53.35323,0.182,51.71,59.44,33.72,35.55
"2016-11-17 12:00:00",262357,0.344,287.4,6.09,73.46,251.8355,0,868.6703,0,-3.514,3.18,243,6.671,8.03,37.67601,0.149,51.66,59.38,33.7,35.54
"2016-11-17 12:10:00",262358,0.334,352.9,5.791,74.16,191.5132,0,868.6893,0,-1.014,3.157,272,6.761,8.02,27.7284,0.145,51.71,59.44,33.72,35.55
"2016-11-17 12:20:00",262359,0.34,325.6,5.437,75.76,159.59,0,868.6746,0,-0.894,3.159,276,6.733,7.967,22.38116,0.14,51.66,59.38,33.7,35.54
"2016-11-17 12:30:00",262360,0.419,351.9,5.246,77.72,182.7429,0,868.6703,0,-0.714,3.156,283,6.733,7.958,27.03844,0.148,51.71,59.38,33.72,35.54
"2016-11-17 12:40:00",262361,0.334,317.9,5.296,78.33,185.5528,0,868.7314,0,-1.224,3.164,273,6.857,7.97,27.67505,0.149,51.66,59.38,33.7,35.54
"2016-11-17 12:50:00",262362,0.503,0.758,4.576,81.3,194.8563,0,868.8221,0,-0.902,3.163,244,6.858,7.991,29.28568,0.15,51.66,59.38,33.7,35.54
"2016-11-17 13:00:00",262363,0.522,352.1,4.543,82.7,186.5339,0,868.7926,0,-1.39,3.168,258,6.832,7.988,27.99055,0.15,51.71,59.44,33.72,35.55
"2016-11-17 13:10:00",262364,0.418,21.78,4.391,83.5,155.5677,0,868.9232,0,-1.232,3.167,213,6.888,7.992,23.06216,0.148,51.71,59.38,33.72,35.54
"2016-11-17 13:20:00",262365,0.498,17.33,4.567,83.7,202.0735,0,868.9232,0,-1.649,3.171,232,7.051,7.941,30.3578,0.15,51.66,59.44,33.7,35.55
"2016-11-17 13:30:00",262366,0.434,359.4,4.49,84.8,188.7622,0,868.925,0,-2.261,3.177,202,7.005,7.945,27.14898,0.144,51.71,59.44,33.72,35.55
"2016-11-17 13:40:00",262367,0.55,0.185,4.545,85.1,240.9511,0,868.9563,0,-1.104,3.166,219,7.074,7.946,35.51217,0.149,51.66,59.44,33.7,35.55
"2016-11-17 13:50:00",262368,0.384,13.5,4.54,85.3,214.6857,0,868.972,0,-2.312,3.176,204,7.151,7.948,31.25913,0.146,51.6,59.44,33.69,35.55
"2016-11-17 14:00:00",262369,0.391,324.1,4.838,84.6,197.3242,0,868.9683,0,-1.806,3.17,204,7.093,7.949,30.57686,0.155,51.6,59.38,33.69,35.54
"2016-11-17 14:10:00",262370,0.507,279.4,4.69,85.9,214.5135,0,868.9855,0,-2.918,3.182,200,7.087,7.949,34.44353,0.16,51.66,59.38,33.7,35.54
"2016-11-17 14:20:00",262371,0.457,241,4.563,87.1,91.58725,0,869.1041,0,-2.063,3.176,200,7.201,7.949,12.53251,0.128,51.66,59.38,33.7,35.54
"2016-11-17 14:30:00",262372,0.244,261.9,4.063,90.4,67.1168,0,869.2302,0,-2.215,3.179,200,7.236,7.951,8.881929,0.13,51.66,59.32,33.7,35.52
"2016-11-17 14:40:00",262373,0.421,203.9,4.192,91.4,148.757,0,869.257,0,-1.406,3.168,200,7.181,7.953,23.8709,0.159,51.66,59.38,33.7,35.54
"2016-11-17 14:50:00",262374,0.225,262.8,4.501,89,131.9179,0,869.4686,0,-2.112,3.175,212,7.248,7.949,20.83444,0.158,51.6,59.32,33.69,35.52
"2016-11-17 15:00:00",262375,0.228,294.7,4.368,89.7,115.3736,0,869.5081,0,-1.811,3.173,219,7.338,7.949,17.88896,0.154,51.6,59.38,33.69,35.54
"2016-11-17 15:10:00",262376,0.26,258.2,4.241,90.5,77.52775,0,869.6676,0,-2.668,3.183,200,7.297,7.951,11.17918,0.144,51.6,59.38,33.69,35.54
"2016-11-17 15:20:00",262377,0.417,290.2,3.855,92.5,45.5361,0,869.7917,0,-1.966,3.179,215,7.256,7.977,6.160109,0.132,51.6,59.38,33.69,35.54
"2016-11-17 15:30:00",262378,0.304,266,3.473,96.5,22.15865,0,869.9648,0,-2.067,3.181,199,7.259,8.03,2.721821,0.122,51.6,59.38,33.69,35.54
"2016-11-17 15:40:00",262379,0.195,274.7,3.354,98.6,17.05147,0,870.0139,0,-2.041,3.181,199,7.359,8.03,2.066006,0.121,51.6,59.32,33.69,35.52
"2016-11-17 15:50:00",262380,0.167,281,3.231,100,10.1436,0,870.0267,0,-2.343,3.185,200,7.427,8.03,1.038689,0.101,51.6,59.38,33.69,35.54
"2016-11-17 16:00:00",262381,0.19,265.5,3.153,100,14.81044,0,870.0309,0,-2.269,3.185,196,7.415,8.03,2.17594,0.145,51.55,59.32,33.68,35.52
"2016-11-17 16:10:00",262382,0.18,317.8,3.066,100,19.24138,0,870.1531,0,-2.47,3.187,206,7.389,8.03,3.100904,0.158,51.55,59.32,33.68,35.52
"2016-11-17 16:20:00",262383,0.117,299.1,3.069,100,17.66873,0,870.2079,0,-1.916,3.181,204,7.398,8.03,3.093323,0.171,51.6,59.32,33.69,35.52
"2016-11-17 16:30:00",262384,0.145,279.2,3.004,100,6.432142,0,870.2437,0,-2.394,3.187,220,7.416,8.03,0.833984,0.126,51.6,59.32,33.69,35.52
"2016-11-17 16:40:00",262385,0.133,277.8,2.807,100,2.244959,0,870.2795,0,-2.194,3.186,242,7.454,8.03,0.1402609,0.044,51.6,59.32,33.69,35.52
"2016-11-17 16:50:00",262386,0.062,293.7,2.708,100,0.5111115,0,870.2795,0,-2.369,3.188,230,7.498,8.03,0,0,51.6,59.32,33.69,35.52
"2016-11-17 17:00:00",262387,0.008,317.6,2.664,100,0,0,870.2795,0,-2.42,3.189,254,7.511,8.03,0,0,51.55,59.32,33.68,35.52
"2016-11-17 17:10:00",262388,0.128,297.6,2.506,100,0,0,870.3764,0,-2.721,3.194,214,7.514,8.03,0,0,51.55,59.32,33.68,35.52
"2016-11-17 17:20:00",262389,0.148,326.3,2.277,100,0,0,870.5155,0,-2.722,3.195,205,7.515,8.03,0,0,51.55,59.26,33.68,35.51
"2016-11-17 17:30:00",262390,0.13,342.1,2.126,100,0,0,870.5303,0,-2.425,3.192,219,7.522,8.04,0,0,51.6,59.26,33.69,35.51
"2016-11-17 17:40:00",262391,0.31,285.6,2.019,100,0,0,870.5323,0,-2.227,3.19,198,7.524,8.04,0.02274606,0,51.55,59.32,33.68,35.52
"2016-11-17 17:50:00",262392,0.159,254.5,2.035,100,0,0,870.5323,0,-2.085,3.19,199,7.537,8.06,0.01516416,0,51.55,59.32,33.68,35.52
"2016-11-17 18:00:00",262393,0.101,215,1.82,100,0,0,870.6014,0,-1.888,3.189,201,7.545,8.07,0,0,51.55,59.26,33.68,35.51
"2016-11-17 18:10:00",262394,0.208,344.8,1.645,100,0,0,870.7623,0,-1.753,3.189,193,7.563,8.09,0,0,51.55,59.26,33.68,35.51
"2016-11-17 18:20:00",262395,0.029,312.3,1.519,100,0,0,870.8389,0,-1.912,3.19,198,7.575,8.11,0.1137576,0,51.55,59.26,33.68,35.51
"2016-11-17 18:30:00",262396,0.035,223.3,1.533,100,0,0,870.9576,0,-2.166,3.192,200,7.552,8.12,0.1820178,0,51.55,59.26,33.68,35.51
"2016-11-17 18:40:00",262397,0.133,309.3,1.463,100,0,0,871.0931,0,-2.168,3.194,201,7.57,8.12,0.1706443,0,51.55,59.26,33.68,35.51
"2016-11-17 18:50:00",262398,0.058,354.3,1.371,100,0,0,871.155,0,-2.569,3.198,202,7.59,8.12,0.2047746,0,51.49,59.26,33.66,35.51
"2016-11-17 19:00:00",262399,0.286,245.4,1.218,100,0,0,871.2399,0,-2.619,3.199,202,7.603,8.13,0.01896064,0,51.49,59.26,33.66,35.51
"2016-11-17 19:10:00",262400,0.111,195.6,1.309,100,0,0,871.1352,0,-2.77,3.199,201,7.621,8.13,0.2237357,0,51.49,59.26,33.66,35.51
"2016-11-17 19:20:00",262401,0.246,1.426,1.258,100,0,0,871.1481,0,-2.768,3.201,206,7.58,8.13,0.1403088,0,51.49,59.26,33.66,35.51
"2016-11-17 19:30:00",262402,0.135,333.9,1.03,100,0,0,871.1354,0,-2.818,3.203,204,7.536,8.13,0.00379213,0,51.49,59.26,33.66,35.51
"2016-11-17 19:40:00",262403,0.211,332,0.9,100,0,0,871.2535,0,-3.168,3.206,205,7.52,8.13,0.02275278,0,51.49,59.2,33.66,35.5
"2016-11-17 19:50:00",262404,0.228,24.48,0.927,100,0,0,871.2535,0,-3.067,3.206,205,7.518,8.13,0.1630616,0,51.49,59.2,33.66,35.5
"2016-11-17 20:00:00",262405,0.162,233.6,0.836,100,0,0,871.3652,0,-2.667,3.202,220,7.518,8.13,0.1516852,0,51.49,59.2,33.66,35.5
"2016-11-17 20:10:00",262406,0.005,119.4,0.887,100,0,0,871.1312,0,-3.143,3.206,204,7.52,8.13,0.2389042,0,51.49,59.2,33.66,35.5
"2016-11-17 20:20:00",262407,0.17,313.7,0.785,100,0,0,871.1312,0,-3.066,3.206,209,7.537,8.13,0.09480325,0,51.49,59.2,33.66,35.5
"2016-11-17 20:30:00",262408,0.199,291.2,0.587,100,0,0,871.1312,0,-2.815,3.205,208,7.517,8.13,0.0379213,0,51.49,59.2,33.66,35.5
"2016-11-17 20:40:00",262409,0.3,203.2,0.438,100,0,0,871.1312,0,-2.864,3.206,204,7.477,8.13,0.01137639,0,51.49,59.2,33.66,35.5
"2016-11-17 20:50:00",262410,0.287,81.5,0.408,100,0,0,871.1312,0,-2.762,3.206,204,7.489,8.13,0.1327246,0,51.49,59.2,33.66,35.5
"2016-11-17 21:00:00",262411,0.287,163.5,0.359,100,0,0,871.1502,0,-2.864,3.206,201,7.45,8.13,0.1668537,0,51.44,59.2,33.65,35.5
"2016-11-17 21:10:00",262412,0.179,227,0.328,100,0,0,871.1312,0,-3.212,3.211,204,7.433,8.13,0.2199436,0,51.44,59.2,33.65,35.5
"2016-11-17 21:20:00",262413,0.188,233.9,0.199,100,0,0,871.1312,0,-3.062,3.21,208,7.432,8.13,0.1327246,0,51.44,59.2,33.65,35.5
"2016-11-17 21:30:00",262414,0.162,127.1,0.15,100,0,0,871.1312,0,-3.112,3.21,204,7.432,8.13,0.1933987,0,51.49,59.2,33.66,35.5
"2016-11-17 21:40:00",262415,0.353,158.4,-0.024,100,0,0,871.1417,0,-2.86,3.209,208,7.433,8.13,0.0758426,0,51.44,59.2,33.65,35.5
"2016-11-17 21:50:00",262416,0.091,354.8,-0.067,100,0,0,871.1481,0,-3.086,3.211,206,7.462,8.13,0.2275278,0,51.49,59.14,33.66,35.48
"2016-11-17 22:00:00",262417,0.19,82.7,0.009,100,0,0,871.3672,0,-2.86,3.209,217,7.47,8.13,0.2275278,0,51.44,59.14,33.65,35.48
"2016-11-17 22:10:00",262418,0.402,61.45,-0.362,100,0,0,871.304,0,-2.507,3.208,218,7.414,8.13,0.01896065,0,51.44,59.14,33.65,35.48
"2016-11-17 22:20:00",262419,0.391,151.2,-0.545,100,0,0,871.1438,0,-2.73,3.211,209,7.418,8.13,0,0,51.49,59.2,33.66,35.5
"2016-11-17 22:30:00",262420,0.792,166.7,-0.601,100,0,0,871.0195,0,-2.755,3.211,205,7.427,8.13,0.1403088,0,51.49,59.14,33.66,35.48
"2016-11-17 22:40:00",262421,0.336,179,-0.533,100,0,0,870.8782,0,-2.507,3.208,212,7.377,8.13,0.2844098,0,51.44,59.14,33.65,35.48
"2016-11-17 22:50:00",262422,0.607,172.9,-0.436,100,0,0,870.8782,0,-2.43,3.208,217,7.345,8.13,0.3223311,0,51.44,59.14,33.65,35.48
"2016-11-17 23:00:00",262423,0.3,137.6,-0.736,100,0,0,870.8614,0,-2.429,3.209,212,7.344,8.13,0.0758426,0,51.49,59.14,33.66,35.48
"2016-11-17 23:10:00",262424,0.111,100.2,-1.027,100,0,0,870.6275,0,-2.598,3.213,197,7.319,8.13,0,0,51.44,59.14,33.65,35.48
"2016-11-17 23:20:00",262425,0.031,291.5,-1.274,100,0,0,870.6253,0,-1.9,3.206,193,7.323,8.13,0,0,51.44,59.14,33.65,35.48
"2016-11-17 23:30:00",262426,0.001,290.6,-1.273,100,0,0,870.7223,0,-1.826,3.206,193,7.345,8.13,0.1175563,0,51.49,59.14,33.66,35.48
"2016-11-17 23:40:00",262427,0.141,140.4,-1.329,100,0,0,870.8508,0,-1.857,3.207,202,7.341,8.16,0.2275357,0,51.44,59.14,33.65,35.48
"2016-11-17 23:50:00",262428,0.225,139.2,-1.609,100,0,0,870.7939,0,-2.116,3.211,184,7.317,8.18,0.03413145,0,51.44,59.08,33.65,35.47
